Flag for U.S.A. Weather past 2 weeks in Colorado Springs, Colorado, U.S.A.

Now
65 °F

Broken clouds.


Feels Like: 65 °F
Forecast: 45 / 60 °F
Wind: No wind

Location: City Of Colorado Springs Municipal Airport

Current Time: May 29, 2015 at 2:40:14 PM

Latest Report: May 29, 2015 at 1:54 PM


Visibility: 10 mi

Pressure: 30.05 "Hg

Humidity: 36%

Dew point: 37 °F

Location of Colorado SpringsLocation

Historic Weather in Colorado Springs — Graph

°F

Colorado Springs temperature yesterday

Maximum temperature yesterday: 74 °F (at 3:54 PM)
Minimum temperature yesterday: 48 °F (at 4:54 AM)
Average temperature yesterday: 61 °F

Past Weeks' High & Low Weather Summary

 TemperatureHumidityPressure
High74 °F (May 27, 4:54 PM)100% (May 19, 2:54 AM)30.32 "Hg (May 19, 2:54 AM)
Low38 °F (May 21, 5:01 AM)22% (May 27, 4:54 PM)29.54 "Hg (May 16, 1:54 AM)
Average52 °F69%29.94 "Hg
* Reported May 14 12:54 PM — May 29 12:54 PM, Colorado Springs, Weather by CustomWeather, © 2015

Note: Actual official high and low records may vary slightly from our data, if they occured in-between our weather recording intervals... More about our weather records

Advertising

Colorado Springs weather history for previous 24 hours

 ConditionsComfort  
Time TempWeatherWind HumidityBarometerVisibility
12:54 PM
Fri, May 29
63 °FBroken clouds.No wind37%30.06 "Hg10 mi
11:54 AM63 °FPartly sunny.6 mph38%30.06 "Hg10 mi
10:54 AM62 °FPartly sunny.6 mph43%30.06 "Hg10 mi
9:54 AM60 °FPartly sunny.9 mph47%30.05 "Hg10 mi
8:54 AM60 °FPassing clouds.9 mph47%30.05 "Hg10 mi
7:54 AM57 °FScattered clouds.14 mph60%30.02 "Hg10 mi
6:54 AM49 °FPassing clouds.9 mph77%30.03 "Hg10 mi
5:54 AM47 °FPassing clouds.10 mph83%30.00 "Hg10 mi
4:54 AM49 °FPassing clouds.7 mph80%29.99 "Hg10 mi
3:54 AM49 °FPassing clouds.5 mph80%29.98 "Hg10 mi
2:54 AM51 °FPartly cloudy.No wind74%29.98 "Hg10 mi
1:54 AM51 °FPassing clouds.8 mph74%30.00 "Hg10 mi
12:54 AM51 °FPartly cloudy.6 mph77%29.98 "Hg10 mi
11:54 PM
Thu, May 28
51 °FPassing clouds.7 mph80%30.00 "Hg10 mi
10:54 PM52 °FThunderstorms. Partly cloudy.8 mph80%30.00 "Hg10 mi
9:54 PM55 °FPassing clouds.9 mph74%30.00 "Hg10 mi
8:54 PM55 °FThunderstorms. Broken clouds.8 mph77%29.93 "Hg10 mi
7:54 PM63 °FThunderstorms. Partly sunny.8 mph50%29.86 "Hg10 mi
6:54 PM67 °FBroken clouds.12 mph41%29.82 "Hg10 mi
5:54 PM70 °FBroken clouds.13 mph34%29.80 "Hg10 mi
4:54 PM73 °FBroken clouds.17 mph29%29.77 "Hg10 mi
3:54 PM74 °FBroken clouds.9 mph25%29.80 "Hg10 mi
2:54 PM70 °FBroken clouds.7 mph32%29.83 "Hg10 mi
Weather by CustomWeather, © 2015

See weather overviewHow to use our weather pages